Wind_Speed
22 22 22 22 21 20 19 19 19 19 20 20 21 22 22 22 21 21 21 22 22 22 23 24 25 25 25 26 29 30 30 28 28 29 30 31 30 29 29 29 29 29 28 29 29 30 30 29 28 28 27 28 28 27 27 26 26 25 24 23 22 20 19 18 17 16 16 15 15
22 22 22 21 20 19 19 19 19 19 19 20 21 22 22 22 21 21 21 22 22 22 23 23 24 25 26 26 28 30 29 28 28 29 30 31 30 30 30 30 30 30 29 29 29 29 29 29 28 27 27 27 28 28 27 27 26 25 24 23 23 22 21 20 18 17 16 15 15
21 21 21 20 20 19 19 19 19 19 19 20 21 22 22 22 21 21 22 22 22 23 23 23 24 26 26 27 28 29 29 28 29 29 30 30 31 31 31 31 31 31 30 29 28 28 28 28 28 27 27 27 27 28 28 27 27 26 25 24 24 23 22 21 19 18 17 16 15
21 21 21 21 20 20 20 20 19 19 20 20 21 22 22 22 21 21 22 22 23 23 23 24 25 26 27 27 28 29 29 28 29 29 30 30 31 31 31 31 31 31 31 30 29 28 28 28 28 27 27 27 27 28 28 27 27 27 26 25 24 23 22 21 20 18 18 17 17
21 21 21 21 21 21 21 20 20 20 21 21 21 21 21 21 21 21 22 22 22 23 24 25 25 26 27 27 28 29 29 28 28 29 30 30 31 31 31 31 31 31 31 30 29 28 27 27 27 26 26 26 27 27 27 27 27 27 26 25 24 23 22 21 19 18 18 17 17
21 21 21 21 22 22 21 21 22 22 22 21 22 22 21 21 21 21 22 22 22 23 24 25 25 26 27 27 28 29 29 28 28 29 29 30 30 31 31 31 31 30 30 30 29 28 28 27 26 25 25 26 26 26 26 26 26 26 26 25 24 23 21 20 19 18 18 18 17
22 21 21 21 22 22 21 22 23 23 23 22 22 23 22 22 22 22 23 23 23 23 24 25 25 26 26 27 28 29 29 29 28 29 29 29 30 30 30 30 30 30 29 29 29 28 28 27 25 24 24 24 25 25 25 26 26 26 26 25 24 23 21 20 19 18 18 18 18
21 21 21 22 22 22 22 22 24 24 23 22 23 24 24 24 23 24 24 23 23 23 24 25 26 26 27 28 28 29 29 29 29 29 29 29 30 30 30 30 30 30 29 29 29 28 28 27 25 24 24 24 24 24 25 25 26 26 26 25 24 23 22 20 19 19 19 19 19
20 20 21 21 22 22 22 23 24 24 24 23 24 25 26 25 25 25 24 24 24 24 24 25 26 27 27 28 29 29 29 29 29 29 29 30 30 30 30 29 30 30 29 29 29 29 28 26 25 25 24 24 24 24 24 25 26 25 25 25 25 24 22 21 20 19 19 19 20
19 19 20 20 21 22 22 23 24 25 24 24 25 26 26 26 25 25 25 25 25 24 24 24 26 27 27 28 29 29 29 30 30 30 30 30 30 30 30 29 30 30 30 29 29 28 27 26 25 25 24 24 24 24 24 25 25 25 24 24 25 24 23 22 21 20 20 20 20
17 18 19 20 21 22 22 23 24 24 24 24 25 25 26 25 26 26 26 25 25 25 25 25 26 27 28 28 29 29 29 29 30 30 30 30 31 31 30 30 30 30 29 29 28 28 27 26 25 24 24 24 24 24 24 25 25 25 24 24 24 24 24 23 22 21 21 21 21
14 16 18 19 21 22 22 22 23 23 24 24 25 25 25 25 26 26 26 25 25 26 26 26 26 27 28 28 29 29 29 29 29 30 30 30 31 31 31 30 30 30 29 29 28 27 26 25 25 24 24 24 24 24 25 25 25 25 24 24 24 24 24 23 23 22 21 21 22
12 14 16 18 20 22 22 22 22 22 23 24 25 25 25 25 26 26 26 25 26 26 26 26 27 27 27 28 28 29 29 29 29 29 30 30 30 31 31 30 30 30 29 29 28 27 26 26 25 25 25 25 24 25 25 26 26 25 25 24 24 24 24 23 23 22 22 22 22
11 14 16 17 20 21 22 22 21 22 23 24 25 25 25 25 25 26 26 26 26 26 26 26 26 27 27 28 28 29 29 29 29 29 29 30 30 30 30 30 30 30 29 29 29 28 27 26 26 26 26 26 25 25 26 26 26 26 26 25 25 24 24 23 23 22 22 22 21
11 14 16 17 19 20 21 22 21 21 23 24 25 25 25 24 25 25 25 25 25 25 25 25 26 26 27 27 28 29 29 29 29 29 29 29 30 30 30 30 30 30 29 29 28 28 27 27 27 27 27 27 26 26 26 27 27 27 26 26 25 25 24 23 23 22 22 22 22
11 13 15 16 18 19 20 21 21 21 22 24 25 25 24 24 24 25 25 25 24 24 24 25 25 26 26 26 27 28 28 28 29 29 29 29 30 30 30 30 30 30 29 28 28 28 27 27 27 28 28 28 27 27 27 27 27 26 26 26 25 25 24 24 23 23 22 22 22
11 12 14 16 17 18 18 20 20 20 21 23 25 25 24 23 24 24 25 25 24 24 24 24 25 25 25 26 26 27 28 28 29 29 29 29 30 30 30 30 30 29 29 28 28 27 27 27 28 28 28 28 28 28 27 27 27 26 26 25 25 24 24 23 23 23 22 22 21
12 11 13 16 18 17 17 18 19 20 21 23 24 25 24 23 23 24 25 25 25 24 25 24 24 25 25 26 26 27 27 28 29 29 30 30 30 30 30 30 29 29 29 28 28 28 27 27 28 28 29 29 28 28 28 27 27 26 25 25 24 23 23 23 22 22 22 21 21
13 12 13 16 19 18 17 16 17 19 20 22 24 24 24 23 24 24 25 26 25 25 25 25 25 25 26 26 26 27 27 28 29 29 29 29 29 30 29 29 29 29 28 28 28 28 28 28 28 28 29 29 29 28 28 27 27 26 25 24 23 23 22 22 21 21 21 20 20
12 12 13 15 18 19 18 16 16 17 19 21 23 24 24 24 24 24 25 26 26 26 26 25 25 25 25 26 26 27 27 27 28 29 29 29 29 29 29 29 28 28 28 28 28 28 28 28 28 29 29 29 29 28 28 27 26 26 24 23 23 22 21 20 20 20 19 19 19
12 11 11 12 14 17 17 16 15 15 16 19 21 23 24 24 24 25 26 26 26 26 26 26 26 25 26 26 27 26 26 26 27 28 28 29 29 29 29 29 29 29 29 28 28 28 28 29 29 29 30 29 29 28 28 27 26 25 24 23 22 20 19 19 19 19 19 19 18
13 13 12 11 12 13 15 16 15 14 14 16 20 22 24 24 24 24 25 26 26 27 26 26 26 26 26 26 27 27 26 25 26 27 28 28 28 29 29 29 29 29 29 29 29 29 29 29 29 30 29 29 29 28 28 27 26 25 24 22 21 19 18 18 18 18 18 18 17
12 14 13 12 12 12 13 14 15 15 15 15 18 21 23 24 24 24 24 25 26 27 26 26 26 26 26 27 27 27 26 25 25 26 27 28 28 28 28 29 29 30 30 30 30 30 30 30 30 29 29 28 28 28 28 27 26 25 23 22 21 19 18 17 17 17 17 17 17
10 12 14 13 13 13 13 13 15 17 17 17 18 20 22 24 24 24 24 25 26 26 26 26 26 26 26 26 27 27 26 25 25 26 26 27 27 28 29 29 30 31 31 31 31 31 31 30 30 30 29 29 28 28 27 26 25 25 24 22 21 19 18 18 17 17 17 17 17
9 10 13 14 14 14 14 14 15 17 18 19 19 20 22 24 24 24 24 25 25 26 26 26 26 26 26 26 26 27 27 26 26 26 27 27 27 28 29 30 30 31 32 32 32 32 32 31 31 31 30 29 28 27 26 26 25 25 24 23 22 20 19 18 17 17 17 17 16
11 8 10 13 14 15 15 14 15 16 18 19 19 20 21 23 24 24 24 24 25 26 26 26 26 26 26 27 27 27 27 27 27 27 27 28 28 29 29 30 31 31 32 32 32 32 32 32 32 32 31 30 28 27 26 25 25 24 24 24 23 21 20 19 18 18 17 17 16
13 9 8 11 14 15 16 15 15 15 17 19 19 19 19 20 22 23 24 24 25 26 26 26 26 26 27 27 27 27 27 27 27 27 28 28 29 29 29 29 30 31 32 32 33 33 33 32 33 32 31 30 29 28 27 26 25 24 24 24 23 22 22 21 20 19 18 17 16
14 11 8 8 13 16 17 17 16 15 16 17 19 19 18 18 19 21 23 24 25 25 26 26 26 26 26 26 27 28 28 28 28 28 28 28 29 29 29 29 30 31 32 32 32 33 33 33 33 32 32 31 29 28 28 27 26 25 24 24 23 23 22 22 21 20 19 18 17
16 13 9 7 10 14 17 18 18 16 15 16 19 21 20 18 18 19 21 23 25 25 25 25 25 25 25 26 27 28 29 29 28 28 28 28 28 28 29 29 30 30 31 32 32 33 33 33 33 32 32 31 29 28 28 27 27 26 25 25 24 24 23 23 22 22 21 20 19
18 15 12 8 7 11 16 18 19 18 17 16 18 20 22 21 19 19 20 22 24 25 26 25 25 25 25 26 27 28 29 29 29 28 28 28 28 28 29 29 30 30 31 32 33 33 33 33 33 32 32 31 30 29 28 28 27 27 26 26 25 25 25 24 24 23 22 22 22
19 17 14 11 8 8 12 17 20 20 19 17 17 19 21 22 21 20 20 21 22 24 25 25 25 25 26 27 27 28 29 29 29 28 28 29 28 28 29 29 30 30 31 32 33 34 34 33 33 32 32 31 30 29 28 28 28 27 27 27 27 26 26 25 25 25 24 24 24
19 17 16 14 12 9 9 14 18 20 21 20 19 19 20 21 22 22 21 21 21 22 23 24 25 26 26 27 27 28 29 29 28 28 28 29 29 29 29 29 29 30 31 33 34 34 34 33 32 32 32 31 30 29 29 28 28 28 28 27 27 27 27 26 26 26 25 25 25
18 17 16 15 14 12 10 10 15 19 21 22 22 21 20 20 21 22 22 21 21 21 22 24 26 26 27 27 27 27 28 28 28 28 28 29 29 29 29 28 28 30 31 33 34 34 34 33 32 32 32 31 30 29 29 28 28 27 27 27 27 27 26 26 26 26 26 26 26
19 17 16 16 15 14 12 10 12 17 21 23 24 24 22 20 20 21 22 22 22 22 23 24 26 27 28 28 27 27 28 27 27 27 27 28 29 29 29 28 28 29 32 34 34 35 34 33 33 32 32 31 30 29 29 29 28 27 27 27 27 26 26 26 26 26 26 26 26
20 18 17 16 16 15 13 12 11 15 20 24 26 26 25 23 21 21 22 23 23 23 23 24 26 27 27 28 28 27 27 27 27 27 27 28 28 29 28 28 28 30 32 34 35 35 34 34 33 33 32 31 30 29 29 28 28 27 27 27 27 26 26 26 26 27 27 27 27
21 20 18 17 16 15 14 13 12 14 19 23 26 27 27 25 23 21 21 22 23 23 24 25 25 25 26 27 27 27 27 27 28 28 28 28 29 29 28 28 28 30 33 34 35 35 35 34 34 33 33 32 29 28 28 28 27 27 27 27 27 26 26 26 26 27 27 27 27
22 20 19 18 17 16 15 14 13 14 18 23 26 28 29 27 25 22 21 21 22 23 24 25 25 25 26 27 27 27 27 29 29 29 29 29 29 29 28 28 29 31 33 35 35 36 35 35 34 34 34 32 30 29 28 27 27 27 26 26 26 26 26 26 27 27 27 27 27
22 21 19 18 18 17 16 15 14 15 18 22 26 28 29 28 26 24 22 21 21 22 23 25 26 27 27 27 27 27 28 29 30 30 30 30 30 30 30 29 30 32 34 36 36 36 36 36 35 35 35 33 31 30 29 28 27 27 26 26 26 26 26 26 26 26 27 27 26
21 20 19 19 19 18 17 17 16 16 18 22 24 26 27 27 26 25 24 24 23 23 23 24 25 26 27 27 27 27 27 29 30 31 31 31 31 31 31 31 31 33 35 36 37 37 37 36 36 36 35 34 32 31 30 29 28 27 27 26 26 25 25 25 25 25 25 25 25
21 20 19 19 19 19 18 18 18 17 18 21 23 25 26 27 26 26 26 26 25 24 24 23 24 24 25 25 25 25 26 27 28 29 30 31 31 32 32 32 33 34 36 37 38 38 38 37 36 36 35 34 33 32 31 30 29 28 27 26 25 25 24 24 24 24 25 24 24
20 19 19 19 19 19 18 19 18 18 18 20 23 25 26 27 26 26 25 25 25 26 25 24 23 23 23 23 23 23 24 24 25 26 28 29 30 31 32 32 33 35 36 37 38 38 38 37 37 37 36 34 33 32 31 31 30 29 28 27 26 25 24 24 24 24 24 24 24
Wind_Direction
156 159 162 164 165 164 163 163 162 161 160 161 161 163 164 166 167 169 171 173 176 178 180 183 184 184 185 186 186 186 186 188 190 191 193 194 195 195 194 193 195 198 200 202 202 201 200 199 200 201 202 204 206 207 208 208 209 209 209 209 208 207 207 206 204 203 203 204 206
160 162 163 164 164 162 161 161 162 161 160 161 162 163 165 166 168 170 173 175 177 178 180 182 183 184 185 186 187 186 186 188 190 191 193 194 195 196 195 194 195 198 200 202 202 200 199 199 200 201 202 205 206 207 208 208 208 209 209 209 210 211 211 210 208 206 205 206 207
163 163 164 164 163 162 161 161 162 162 161 162 164 166 167 169 171 173 175 177 178 179 179 181 183 184 185 186 187 187 187 188 190 191 192 193 195 196 196 196 196 198 200 202 202 201 200 200 200 201 202 204 206 207 208 208 208 209 209 211 212 213 214 213 211 209 207 206 208
165 165 165 165 164 162 162 163 163 163 163 164 166 168 170 172 174 176 177 179 180 180 181 182 183 184 186 187 187 187 187 189 190 191 192 193 194 196 197 197 198 199 200 202 202 202 202 202 201 201 203 205 207 208 208 208 208 209 210 211 214 215 216 215 213 211 208 207 208
167 167 167 166 165 164 164 164 165 166 166 167 169 171 173 175 177 179 179 180 181 182 183 184 184 185 186 187 188 188 188 189 191 192 192 193 194 196 198 198 199 200 201 202 202 204 204 204 202 202 204 207 208 209 209 209 208 209 210 211 213 215 216 216 215 212 210 208 208
168 168 168 167 166 166 167 167 169 170 170 171 172 174 176 178 180 181 181 182 183 185 185 186 185 185 186 188 189 189 189 190 191 192 193 193 195 196 198 199 200 201 201 202 203 205 206 205 204 203 205 208 209 210 211 210 208 208 209 210 212 214 216 216 215 213 211 209 208
168 167 167 167 167 166 167 170 173 174 174 175 177 178 180 181 182 183 184 184 184 185 186 187 186 186 187 188 189 190 191 191 192 193 194 194 196 197 198 199 201 202 202 203 203 205 206 206 204 204 206 208 208 209 209 209 208 207 208 209 211 213 214 215 215 213 212 210 209
166 166 166 166 167 168 169 172 174 176 177 179 181 183 184 185 185 186 186 186 185 186 187 188 188 188 188 189 189 191 192 192 193 194 195 196 197 197 198 200 201 202 203 203 203 204 205 206 205 205 205 206 206 207 207 207 207 206 207 208 209 211 212 213 214 213 213 211 210
165 165 165 166 168 170 172 175 177 178 180 183 185 187 188 188 188 188 188 187 187 187 188 188 189 189 189 190 190 191 192 193 194 195 196 198 198 198 198 200 201 202 203 203 203 204 204 204 204 205 206 206 205 205 206 205 205 204 204 205 207 209 210 211 212 213 214 213 211
165 165 165 167 170 173 176 178 181 182 184 186 188 190 190 191 191 190 190 190 190 190 189 189 190 190 190 190 191 191 193 194 195 196 197 198 199 199 199 200 201 202 202 202 202 203 203 203 203 204 205 206 205 205 204 204 203 201 201 203 205 207 208 209 210 212 213 213 212
168 166 167 169 172 176 178 180 182 184 186 188 190 191 192 193 193 193 193 193 192 191 191 191 191 191 191 191 191 192 193 194 195 196 197 199 200 200 200 200 201 202 202 201 201 201 201 201 201 202 204 205 205 204 203 202 201 199 199 201 204 205 206 207 208 210 211 212 212
174 171 170 172 175 178 180 181 183 185 188 190 191 192 193 194 195 195 195 195 194 194 194 194 193 192 191 192 192 192 193 194 195 196 197 199 200 201 201 201 201 202 202 202 201 200 200 200 200 201 202 203 203 202 201 199 198 197 197 200 202 203 203 204 206 208 210 211 211
183 180 176 175 178 181 182 183 184 186 189 191 192 193 194 195 197 197 197 196 196 196 196 197 196 194 193 192 192 193 193 194 195 196 197 198 200 200 200 201 201 202 202 202 201 200 199 199 200 200 201 201 200 200 199 198 197 196 196 198 199 201 202 203 205 206 208 209 209
187 186 182 179 180 182 183 184 185 187 190 192 193 194 195 196 197 198 198 198 198 198 197 197 197 196 195 195 194 194 194 194 195 196 197 198 199 199 199 200 201 201 201 202 201 200 199 199 200 200 199 199 198 198 198 197 197 197 198 198 198 199 201 202 204 205 205 205 205
185 187 185 181 181 182 184 185 186 189 191 193 194 195 195 195 197 199 199 199 199 199 198 197 197 197 198 197 196 195 195 195 196 196 197 198 199 199 199 199 200 200 201 201 201 200 200 199 200 199 198 197 196 196 196 196 197 199 200 200 200 200 201 202 204 204 204 203 203
183 184 185 182 181 182 184 186 188 189 191 193 195 195 194 195 197 199 200 200 200 200 199 198 198 197 198 198 198 197 197 197 197 198 198 198 199 199 199 199 200 200 200 199 199 199 199 200 200 199 198 197 196 195 195 195 197 199 201 202 203 203 203 204 205 205 205 205 204
189 185 185 184 183 184 185 187 188 190 192 193 195 195 194 194 196 198 200 200 200 199 199 199 199 198 197 197 199 199 198 199 199 200 200 200 200 200 200 200 200 200 199 199 198 198 198 199 200 199 198 197 197 196 196 197 198 200 202 204 205 206 207 208 208 208 208 208 208
201 196 189 186 187 189 190 190 190 191 193 194 195 195 195 195 196 198 200 201 201 200 199 199 199 198 197 197 198 199 200 200 201 202 202 202 202 202 201 201 201 200 199 198 198 197 198 198 198 198 197 197 197 198 198 198 200 202 204 205 207 209 210 211 212 212 211 211 212
209 205 197 191 193 196 198 196 194 194 194 195 196 195 195 195 197 198 199 201 201 201 200 199 199 199 198 197 197 199 200 201 202 203 204 204 204 204 203 202 202 200 199 198 198 198 198 198 197 196 196 197 197 198 199 199 201 202 205 207 209 210 212 213 214 214 214 214 214
218 215 208 200 198 200 203 203 200 198 198 198 197 196 196 196 198 199 199 200 202 203 202 200 199 198 198 198 198 199 201 202 203 204 204 205 205 204 204 203 201 200 199 198 198 198 198 197 196 196 196 196 197 198 198 199 200 202 204 206 208 210 212 213 214 214 214 214 215
227 229 225 215 208 206 207 208 207 205 203 202 200 199 198 198 199 200 201 202 202 202 202 201 199 198 198 199 199 199 200 202 203 204 204 204 204 204 203 202 201 199 198 197 197 198 198 197 196 195 196 196 197 197 197 197 198 200 202 204 206 208 210 211 212 212 212 212 213
236 236 237 231 222 215 211 211 212 213 212 208 206 203 201 200 201 202 204 203 202 202 201 201 201 200 199 199 200 200 201 202 203 204 204 204 204 204 203 201 200 199 197 197 197 197 197 196 196 195 195 195 196 196 196 196 197 198 199 201 202 204 205 207 209 209 209 209 210
256 245 243 240 231 222 216 214 214 217 219 218 214 209 206 203 203 204 204 203 202 202 202 202 202 202 202 202 201 201 200 201 202 203 204 203 203 202 201 200 200 198 197 196 196 196 195 194 194 194 193 193 194 195 195 196 197 197 197 197 198 198 199 201 204 205 205 205 206
284 258 248 243 235 227 221 217 215 216 219 223 222 217 212 208 206 205 205 204 203 203 203 203 203 203 204 203 202 201 200 200 201 202 202 202 201 201 200 200 199 198 197 196 196 196 194 192 190 190 190 191 192 194 195 195 196 196 195 194 193 192 193 195 198 199 199 199 200
311 268 249 243 237 231 226 221 217 216 218 223 226 223 217 212 208 206 206 205 205 204 204 203 203 204 204 203 202 202 201 201 201 200 200 200 200 200 199 199 199 198 197 197 197 196 195 192 190 188 188 189 191 192 194 195 196 196 194 192 190 188 188 189 191 193 193 193 194
333 293 252 241 235 231 228 224 221 219 220 222 224 222 218 213 209 208 207 207 207 206 206 205 204 204 203 202 202 201 202 202 202 201 200 199 199 199 199 199 198 197 197 196 196 196 195 193 192 191 190 190 190 191 191 192 193 193 191 190 188 187 185 184 185 187 188 188 189
338 324 278 245 234 230 228 226 225 225 225 223 220 217 215 212 210 208 208 208 208 208 207 205 205 204 203 202 201 201 201 202 202 202 201 200 199 198 197 197 196 196 196 196 195 194 194 194 193 193 193 192 192 192 191 189 189 188 187 186 186 186 185 182 182 182 182 182 184
332 333 314 263 241 234 231 229 229 230 228 223 218 216 215 214 212 210 209 208 208 207 206 205 205 204 203 202 201 202 202 202 203 203 202 201 199 198 197 196 195 196 195 194 192 192 193 194 194 195 195 194 194 193 191 188 186 185 184 183 184 184 184 183 182 180 179 177 177
324 328 326 295 252 239 235 233 232 232 230 224 218 216 217 219 218 215 211 209 207 206 205 204 203 203 201 201 202 202 203 203 203 203 202 201 199 197 196 195 195 195 194 192 191 191 193 195 195 196 197 196 194 192 190 187 185 183 183 183 184 184 184 182 181 179 177 175 173
321 321 321 314 274 243 234 232 232 232 230 225 218 214 215 219 221 219 214 210 207 206 205 204 203 201 201 202 203 202 202 203 203 203 201 200 198 196 196 195 195 195 193 191 190 191 193 195 196 196 197 197 195 192 189 187 186 185 184 184 186 186 185 183 181 179 177 174 171
321 318 317 317 306 264 236 230 229 230 229 226 220 215 213 216 219 219 216 212 209 208 206 205 203 203 203 204 204 203 202 202 202 202 201 199 197 196 195 195 195 194 192 190 190 191 193 195 196 197 197 198 196 192 190 188 187 187 186 186 187 186 185 183 182 180 178 175 171
321 317 313 312 311 295 257 232 226 225 226 225 223 219 215 214 216 216 216 214 211 209 207 204 203 204 204 204 204 203 202 201 201 201 200 199 196 195 194 194 194 192 190 189 190 191 194 195 196 196 197 197 195 193 190 189 188 188 188 187 187 185 184 182 180 179 178 176 172
323 318 313 309 307 303 286 249 228 221 221 222 222 222 220 217 215 214 214 214 213 211 208 206 204 204 204 204 203 202 202 201 200 200 199 197 195 194 193 192 192 191 190 189 190 192 193 195 196 196 196 195 194 191 189 187 186 185 185 184 184 183 182 181 179 178 176 174 172
327 321 315 310 306 304 296 273 238 221 216 216 219 222 222 221 217 214 212 212 212 212 211 210 208 207 206 206 204 202 201 200 199 198 196 195 194 192 191 190 190 189 189 189 190 191 192 193 194 194 194 193 191 188 186 184 182 181 180 179 179 179 179 178 176 175 173 172 170
330 325 319 313 308 305 300 287 255 226 214 211 214 218 221 222 220 215 211 209 209 209 210 211 211 209 208 207 205 202 199 197 196 195 194 193 192 191 189 188 188 188 189 189 190 190 190 191 192 192 191 189 187 184 182 180 178 177 176 175 174 174 174 173 172 171 170 170 170
331 327 321 315 310 306 302 294 270 237 217 209 210 213 217 219 219 216 211 207 205 205 207 208 209 208 206 204 202 200 197 196 194 193 192 192 191 189 187 186 186 187 188 188 188 188 188 189 189 189 188 186 183 180 178 176 173 172 171 170 168 169 169 168 168 168 169 170 171
329 326 321 316 310 305 301 295 279 250 225 213 209 210 212 214 215 213 209 204 201 201 203 205 205 205 204 202 199 198 197 197 195 193 191 191 190 188 186 185 184 185 186 187 188 188 188 187 188 188 187 183 179 176 173 170 168 166 165 164 163 164 165 166 167 168 169 170 171
326 324 321 315 310 305 300 294 283 259 234 219 212 210 210 210 210 209 206 202 199 198 200 202 203 203 203 202 199 198 198 199 198 195 193 191 191 189 186 184 183 184 185 187 187 188 188 188 188 189 187 183 178 174 170 167 164 162 161 160 160 161 163 165 166 167 168 169 170
322 322 320 316 311 305 298 291 282 264 242 225 216 212 209 208 207 207 205 203 201 200 201 202 202 202 201 200 197 196 196 198 198 197 195 192 192 191 189 185 184 184 185 186 187 188 189 189 189 189 188 184 179 174 170 166 162 160 159 158 157 157 160 162 163 164 165 168 169
319 319 318 316 311 305 297 289 280 267 249 232 220 213 210 208 207 206 205 204 203 204 205 205 202 199 197 195 193 192 193 195 195 195 195 193 192 191 190 188 185 183 184 186 187 189 189 189 189 188 187 184 180 175 170 166 162 158 156 156 155 154 156 158 160 161 162 165 167
318 317 317 316 313 306 298 289 281 271 255 237 224 217 212 209 207 205 204 203 203 204 205 204 201 197 194 193 192 191 190 190 191 192 192 191 190 190 189 188 185 183 183 185 187 188 189 189 189 188 187 184 180 176 171 166 161 157 155 155 155 153 152 154 156 158 160 162 164
Height
693 695 697 698 700 701 702 703 704 704 705 706 707 709 710 712 714 715 717 718 719 721 722 723 724 726 727 729 729 731 733 734 735 737 739 740 741 742 744 745 747 749 750 751 752 754 754 755 757 758 759 761 762 763 764 765 766 767 767 768 769 770 771 772 772 773 774 774 775
694 695 697 698 699 701 702 703 704 704 705 706 707 709 710 712 713 715 716 718 719 720 721 723 724 725 727 728 729 730 732 734 735 736 738 739 741 742 744 745 746 748 749 751 752 753 754 755 756 757 759 760 761 762 763 764 765 766 767 767 768 769 770 771 772 773 774 774 774
695 696 697 698 699 700 701 702 703 704 705 706 708 709 710 712 713 715 716 718 719 720 721 722 724 725 726 728 729 730 732 733 734 736 738 739 741 742 743 744 746 747 749 750 752 752 753 754 755 756 758 759 760 761 762 763 764 765 766 766 767 769 769 770 771 772 773 774 774
695 696 697 698 699 699 700 701 703 704 705 706 708 709 711 712 714 715 716 718 719 720 721 722 723 724 726 727 729 730 732 733 734 736 737 739 740 742 743 744 745 747 748 750 751 752 753 754 755 756 757 758 759 760 761 762 763 764 765 766 767 768 769 770 771 772 772 773 774
696 696 697 697 698 699 700 701 702 704 705 707 708 710 711 713 714 715 717 718 719 720 721 722 723 724 726 727 728 730 731 733 734 736 737 739 740 741 743 744 745 746 748 749 750 752 753 754 755 756 757 758 759 759 760 761 762 763 764 765 766 767 768 769 770 771 771 772 773
696 696 697 697 698 699 700 701 702 704 705 707 709 710 712 713 714 715 716 718 719 719 721 722 723 724 725 727 728 729 731 733 734 735 737 738 739 741 742 744 744 746 747 748 750 751 753 754 755 756 756 757 758 759 759 760 761 763 764 765 766 767 767 768 769 770 770 771 772
696 696 697 697 697 698 699 701 702 704 706 707 709 710 711 713 714 715 716 717 718 719 721 722 723 724 725 727 728 729 731 732 734 735 736 738 739 740 742 743 744 745 746 748 749 751 752 754 755 755 756 757 758 758 759 760 761 762 763 764 765 766 767 767 768 769 769 770 771
696 696 696 696 697 698 699 700 702 704 706 707 709 710 711 712 713 714 716 717 718 719 720 721 723 724 725 726 727 729 730 731 733 734 736 737 738 740 741 742 743 744 746 747 749 750 751 753 754 755 755 756 757 758 758 759 760 761 762 763 764 765 766 766 767 768 769 769 770
696 696 696 696 697 698 699 700 702 704 705 707 708 709 710 712 713 714 715 716 718 719 720 721 722 723 724 725 727 728 729 731 732 734 735 736 738 739 740 742 743 744 745 746 748 749 750 752 753 754 754 755 756 757 758 759 759 760 761 762 763 764 765 766 766 767 768 769 769
695 696 696 697 697 698 699 701 702 704 705 707 708 709 710 711 712 713 714 716 717 719 719 720 722 723 724 725 726 727 729 730 731 733 734 735 737 738 739 741 742 743 744 746 747 748 749 751 752 753 754 754 755 756 757 758 759 759 760 761 762 763 764 765 766 766 767 768 769
695 696 696 697 698 699 700 701 703 704 705 706 708 709 710 711 712 713 714 715 717 718 719 720 721 722 723 724 725 726 728 729 730 732 733 734 736 737 738 740 741 742 744 745 746 748 749 750 750 752 753 754 755 756 756 757 758 759 759 760 761 762 763 764 765 766 766 767 768
695 696 696 697 698 699 700 702 703 704 705 706 707 708 709 710 711 712 714 715 716 717 718 719 720 721 722 723 724 726 727 728 729 731 732 734 735 736 738 739 740 741 743 744 745 747 748 749 749 750 752 753 754 755 756 756 757 758 759 759 760 761 762 763 764 764 765 766 767
695 696 697 698 698 699 700 702 703 704 705 706 707 708 709 709 711 712 713 714 715 716 717 719 719 720 721 723 724 725 726 727 729 730 731 733 734 735 737 738 739 741 742 743 744 746 747 748 749 749 751 752 753 754 754 755 756 757 758 759 760 761 761 762 763 764 764 765 766
696 697 698 698 699 700 701 702 703 704 704 705 706 707 708 709 710 711 712 713 714 715 717 718 719 720 721 722 723 724 725 727 728 729 730 732 733 734 736 737 739 740 741 742 744 744 745 746 747 749 750 751 752 753 754 754 755 756 757 758 759 759 760 761 762 763 763 764 765
696 697 698 699 699 700 701 702 703 703 704 705 705 706 708 709 709 711 712 713 714 714 716 717 718 719 720 721 722 723 724 726 727 729 730 731 732 734 735 736 737 739 740 741 743 744 744 745 746 748 749 750 751 752 753 754 754 755 756 757 758 759 759 760 761 761 762 763 764
696 697 698 699 699 700 701 701 702 703 703 704 705 706 707 708 709 710 711 712 713 714 715 716 717 718 719 720 722 723 724 725 726 728 729 730 731 733 734 735 736 738 739 740 741 743 744 744 746 747 748 749 750 751 752 753 754 755 756 756 757 758 758 759 760 760 761 762 763
696 697 698 698 699 700 700 701 701 702 702 703 704 705 706 707 708 709 710 711 712 713 714 715 716 717 719 720 721 722 723 724 725 727 728 729 730 732 733 734 735 736 738 739 740 742 743 744 745 746 748 749 749 750 751 753 754 754 755 756 756 757 758 758 759 760 761 762 763
697 697 698 698 699 699 700 700 701 701 701 702 703 704 705 706 707 708 709 710 711 712 713 714 715 716 717 719 720 721 722 723 724 725 727 728 729 730 732 733 734 736 737 738 739 741 742 743 744 746 747 748 749 750 751 752 753 754 755 755 756 757 757 758 759 759 760 761 762
698 698 699 699 699 699 699 699 700 700 701 701 702 703 704 705 706 707 709 710 711 712 713 714 715 715 716 717 719 719 721 722 723 724 726 727 729 730 731 733 734 735 736 738 739 740 741 742 744 745 746 748 749 750 751 752 753 753 754 755 755 756 757 758 758 759 760 761 762
698 699 699 699 699 699 699 699 700 700 700 701 702 703 704 704 706 707 708 709 710 711 712 713 714 715 716 717 718 719 720 721 722 724 725 726 728 729 731 732 733 734 736 737 738 739 740 742 743 744 745 747 748 749 750 751 752 753 754 754 755 756 756 757 758 759 760 761 762
699 699 699 700 700 700 700 700 700 701 701 701 702 702 703 704 705 706 707 708 709 710 711 712 713 714 715 716 717 718 719 720 722 723 724 726 727 728 730 731 733 734 735 736 737 738 739 741 742 744 745 746 748 749 750 751 751 752 753 754 754 755 756 757 758 759 759 760 761
699 699 699 699 700 700 701 701 701 702 702 702 702 703 704 704 705 706 707 708 709 710 711 712 712 713 714 715 716 717 719 720 721 723 724 725 726 728 729 730 732 733 734 735 736 737 739 740 741 743 744 746 747 748 749 750 751 752 752 753 754 755 756 757 758 759 759 760 761
699 699 699 699 699 699 700 701 702 702 702 703 703 703 704 704 705 706 707 708 709 709 710 711 712 713 714 715 716 717 719 720 721 722 723 724 726 727 729 729 731 732 733 734 735 736 737 739 741 742 744 745 746 747 748 749 750 751 752 753 754 755 756 757 758 759 759 760 761
700 699 698 698 698 699 700 701 701 702 702 702 703 704 704 704 705 706 707 707 708 709 710 711 712 713 714 714 716 717 718 719 720 722 723 724 725 726 728 729 729 731 732 733 734 735 736 738 739 741 743 744 745 747 748 749 749 750 751 752 753 754 755 757 758 759 759 760 761
701 700 699 698 698 699 699 700 701 702 702 702 703 703 704 704 705 706 706 707 708 709 709 710 711 712 714 714 716 717 718 719 720 721 722 723 724 725 726 727 729 729 730 731 732 734 735 737 738 740 742 743 745 746 747 748 749 749 750 751 752 754 755 756 757 759 759 760 761
701 700 699 699 699 699 699 700 701 702 702 703 703 703 704 704 705 705 706 706 707 708 709 710 711 712 713 714 715 716 718 719 719 720 721 722 724 724 725 726 727 728 729 730 731 733 734 736 737 739 740 742 744 745 746 748 749 749 750 751 752 753 754 756 757 758 759 760 761
702 701 700 699 699 699 699 700 701 701 702 703 703 703 703 704 704 705 705 706 707 708 709 710 711 712 713 714 715 716 717 718 719 720 720 721 723 724 724 725 726 727 728 729 731 732 734 735 736 738 739 741 743 744 745 747 748 749 749 750 751 752 754 755 756 757 759 760 761
702 702 701 700 699 699 699 699 700 701 702 702 702 703 703 704 704 704 705 705 706 707 708 709 710 711 712 713 714 715 716 717 718 719 720 721 722 723 724 725 725 726 727 728 730 732 733 734 736 737 738 740 741 743 744 745 747 748 749 750 751 752 753 754 755 757 758 759 760
701 701 701 700 699 699 699 699 699 700 701 702 702 702 703 703 704 704 704 705 706 706 707 709 709 711 712 712 713 714 715 716 717 719 719 720 721 722 723 724 724 725 726 728 730 731 733 734 735 736 738 739 740 742 744 744 746 747 748 749 750 752 753 754 754 756 757 759 759
700 700 700 699 699 698 698 699 699 699 700 701 702 702 703 703 703 704 704 704 705 705 706 708 709 710 710 711 712 714 714 716 717 718 719 720 721 722 723 723 724 725 726 728 729 730 732 733 734 736 737 739 740 741 743 744 745 746 747 749 749 751 752 753 754 755 756 757 759
699 699 699 698 698 698 698 698 698 699 699 700 701 702 702 702 703 703 703 704 704 705 706 707 708 709 709 710 712 713 714 715 716 717 718 719 720 721 722 722 723 724 726 727 729 730 731 733 734 735 737 738 739 740 741 743 744 745 746 747 749 749 751 752 753 754 754 756 757
699 699 698 697 697 697 697 698 698 698 699 699 700 701 701 701 702 702 702 703 704 705 705 706 707 708 709 710 711 712 713 714 715 716 717 718 719 720 721 722 723 724 725 727 728 729 731 732 734 735 736 737 738 739 740 742 743 744 746 747 748 749 750 751 752 753 754 755 756
699 698 697 696 696 695 696 696 697 697 698 698 699 700 700 700 701 701 702 702 703 704 704 705 706 707 708 709 710 711 712 713 714 715 716 717 718 719 720 721 723 724 725 726 728 729 730 732 733 734 736 737 738 739 740 742 743 744 745 746 748 749 749 750 751 752 753 754 756
699 698 696 696 695 695 695 695 696 696 697 697 698 699 699 699 700 700 700 701 702 703 704 704 705 705 706 707 709 710 711 712 714 714 716 717 717 718 719 721 722 724 725 726 727 729 730 731 733 734 735 736 738 739 740 741 742 744 745 746 748 749 750 750 751 752 753 754 756
698 697 696 695 694 694 694 694 694 695 695 696 697 698 698 699 699 699 699 700 701 702 703 704 704 705 706 707 708 709 710 711 713 714 715 715 717 718 719 720 722 723 724 726 727 728 729 730 732 733 734 736 737 739 739 741 742 743 744 746 747 749 750 751 752 753 754 754 755
698 697 696 695 694 694 694 693 694 694 694 694 695 696 697 698 698 698 699 699 700 700 701 703 704 705 706 706 707 708 709 710 711 712 714 714 716 717 719 720 721 723 724 725 727 728 729 729 731 732 734 735 737 738 739 740 742 743 744 746 747 748 749 751 752 753 754 754 755
698 697 696 695 694 694 693 693 693 693 693 693 693 694 695 696 697 697 698 699 699 699 700 701 702 704 704 705 706 707 708 709 709 711 712 714 715 716 718 719 721 722 724 725 726 727 728 729 730 731 732 734 735 737 739 740 742 743 744 746 747 748 749 751 752 753 754 754 756
698 697 695 694 694 693 693 692 692 692 692 692 692 692 693 694 695 696 697 697 698 698 699 700 701 702 703 704 705 706 707 708 708 709 711 712 714 715 717 718 720 721 723 724 725 726 727 728 729 730 731 732 734 736 738 739 741 743 744 746 747 749 750 751 752 753 754 755 756
698 697 696 694 694 693 692 692 691 691 691 691 691 692 692 693 694 694 695 696 697 698 699 700 700 701 703 704 705 705 706 707 708 708 709 711 712 714 715 717 719 720 722 723 724 725 726 727 728 729 730 731 733 734 736 738 740 742 744 745 747 749 750 751 752 753 754 756 757
698 697 696 694 693 692 692 691 691 690 690 690 691 691 691 692 692 693 694 695 696 697 699 700 701 702 703 703 704 705 706 707 708 709 709 710 711 713 714 715 717 719 721 722 723 724 725 726 727 728 729 730 732 733 735 737 739 741 743 744 746 748 750 752 753 754 755 756 758
698 696 695 694 693 692 691 690 690 689 689 690 690 690 690 691 691 692 693 694 695 697 699 700 701 702 702 703 704 704 705 707 708 709 710 710 711 713 714 715 716 718 720 721 722 723 724 725 726 727 728 729 731 733 734 736 738 740 742 744 746 748 749 752 754 755 756 757 758